Location: Martinez
(33.5170°N, 82.0760°W)
Time: 04:41:10
(UTC-05:00)

Hubble Space Telescope - Visible Passes

Search period start: 11 December 2017 00:00
Search period end: 21 December 2017 00:00
Orbit: 538 x 541 km, 28.5° (Epoch: 10 December)

Date Brightness Start Highest point End Pass type
(mag) Time Alt. Az. Time Alt. Az. Time Alt. Az.
11 Dec 1.6 19:14:18 10° WSW 19:18:13 41° S 19:18:16 41° S visible
12 Dec 1.6 19:04:03 10° WSW 19:07:57 40° S 19:08:42 36° SSE visible
13 Dec 1.8 18:53:48 10° WSW 18:57:41 39° S 18:59:11 28° SE visible
14 Dec 2.0 18:43:35 10° WSW 18:47:24 36° S 18:49:44 20° SE visible
15 Dec 2.2 18:33:23 10° WSW 18:37:07 33° S 18:40:23 13° SE visible
15 Dec 3.9 20:15:29 10° WSW 20:15:46 11° SW 20:15:46 11° SW visible
16 Dec 2.5 18:23:13 10° WSW 18:26:50 29° SSW 18:30:27 10° SE visible
16 Dec 3.8 20:05:56 10° SW 20:06:32 11° SW 20:06:32 11° SW visible
17 Dec 2.7 18:13:04 10° WSW 18:16:32 26° SSW 18:19:59 10° SE visible
18 Dec 3.1 18:02:59 10° WSW 18:06:13 22° SSW 18:09:27 10° SE visible
19 Dec 3.4 17:52:59 10° WSW 17:55:54 19° SSW 17:58:49 10° SSE visible
